OBJECT F

Satellite information

Favourite Embed

Satellite Type and Status

UNKNOWNIN ORBIT

Key statistics

Satellite OBJECT F at a glance.

Uptime

213

Days in orbit

Revolutions

≈ 15.2

Per day

Orbit

SSO

Sun Synchronous Orbit

Inclination

97.4

Latest

Satellite identification and parameters

Extended collection of information and parameters for OBJECT F.

Object identification

Identified? True

Debris? False

Object name: OBJECT F

International designator: 2025-100F

Object number (NORAD): 63987

Object ID (CCSDS): 63987

Country: PEOPLES REPUBLIC OF CHINA (PRC)

Current information (Y/N): Y

RCS size: LARGE

Orbital parameters

Period: 94.761 minutes

Inclination: 97.3846 deg

SMA: 6885.162 km

Apoapsis: 513.894 km

Periapsis: 500.161 km

RAAN: 57.3381 deg

Eccentricy: 0.00099726

Argument of periapsis: 239.1519 deg

Mean anomaly: 120.8735 deg

Mean motion: 15.19607721 rev/day

Mean motion (dot): 0.00026812 rev/day2

B* drag term: 0.0012571139 1/REarth

Two-line elements (TLE)

Creation date: Dec. 12, 2025, 3:16 a.m.

Reference frame: TEME

Reference center: EARTH

Epoch: Dec. 11, 2025, 10:21 a.m. UTC

TLE line 0: 0 OBJECT F

TLE line 1: 1 63987U 25100F 25345.43138367 .00026812 00000-0 12571-2 0 9992

TLE line 2: 2 63987 97.3846 57.3381 0009973 239.1519 120.8735 15.19607721 32108

Live tracking on map

Real-time ground track for satellite OBJECT F.

In-orbit conjunctions

There are no conjunctions computed for OBJECT F, at the moment. Check back to stay up to date, as we update our databases every day.

Go to all conjunctions

Associated space launch

12 satellites from ADASPACE testing in-orbit data processing capabilities for other satellites with artificial intelligence assistance, as well as inter-satellite laser link communication techniques.

OBJECT F was lifted into orbit during the mission ‘Long March 2D | Space Computing Constellation’, on board a Long March 2D space rocket.

The launch took place on May 14, 2025, 4:12 a.m. from Launch Area 94 (SLS-2 / 603).

For more information about the launch, click the button.

Launch to space Long March 2D | Space Computing Constellation
Long March 2D | Space Computing Constellation

Agency: N/A

Status: Launch Successful

Launch date: May 14, 2025, 4:12 a.m. UTC

Rocket: Long March 2D

Launch pad: Launch Area 94 (SLS-2 / 603)

Location: Jiuquan Satellite Launch Center, People's Republic of China

...

Latest news about this satellite

News about space launch
Rocket Report: How is your payload fairing? Poland launches test rocket.

No thunder down under.

News about space launch
China launches first of 2,800 satellites for AI space computing constellation

China launched 12 satellites early Wednesday for a pioneering on-orbit computing project led by startup ADA Space and Zhejiang Lab. The post China launches first of 2,800 satellites for AI space computing constellation appeared first on SpaceNews.

News about space launch
Launch Roundup: Orbital launches from five countries planned

On the heels of a busy April, activity is ramping up for May with launches… The post Launch Roundup: Orbital launches from five countries planned appeared first on NASASpaceFlight.com.


Newsletter sign-up

Weekly statistics, charts and insights to help you stay on top of the space industry.